User: anonymous
Location: Caltech
(34.1382°N, 118.1253°W)
Time: 01:24:43
(UTC-07:00)
Language:

Iridium 59 - Orbit

View from above orbital plane
View from above orbital plane
View from above satellite
View from above satellite

Ground track
Ground track

The orbit data is extracted from the following two-line orbital elements,

1 25275U 98019D   14274.23064742  .00000494  00000-0  16930-3 0  5281
2 25275 086.3992 341.1737 0002460 107.9632 252.1832 14.34222954864171
Epoch (UTC): 01 October 2014 05:32:07
Eccentricity: 0.0002460
inclination: 86.3992°
perigee height: 776 km
apogee height: 779 km
right ascension of ascending node: 341.1737°
argument of perigee: 107.9632°
revolutions per day: 14.34222954
mean anomaly at epoch: 252.1832°
orbit number at epoch: 86417

The dashed part of the orbit path shows where the satellite is in the earth's shadow,  

DLR